Regional Weather Roundup
Issued by NWS

Home | Current Version | Previous Version | Text Only | Print | Product List | Glossary Off
Versions: 1 2 3 4 5 6 7 8 9 10 11 12 13 14 15 16 17 18 19 20 21 22 23 24 25 26 27 28 29 30 31 32 33 34 35 36 37 38 39 40 41 42 43 44 45 46 47 48 49 50

000
ASUS43 KLOT 310000
RWRIL

ILLINOIS REGIONAL WEATHER ROUNDUP
NATIONAL WEATHER SERVICE CHICAGO/ROMEOVILLE IL
700 PM CDT SAT AUG 30 2014

NOTE: "FAIR" INDICATES FEW OR NO CLOUDS BELOW 12,000 FEET WITH NO
SIGNIFICANT WEATHER AND/OR OBSTRUCTIONS TO VISIBILITY.

* THESE STATIONS ARE NOT UNDER NWS QUALITY CONTROL. THEY ALSO MAY NOT
  REPORT WEATHER SUCH AS PRECIPITATION OR FOG.

ILZ001-002-007-009-015-016-024-310100-
NORTHWEST ILLINOIS

CITY           SKY/WX    TMP DP  RH WIND       PRES   REMARKS
MOLINE         CLEAR     79  67  66 W3        29.86S HX  81
6HR MIN TEMP:  77; 6HR MAX TEMP:  83;

STERLING*      CLEAR     79  66  65 W6        29.87S HX  81
$$

ILZ003-004-008-010-011-017-018-310100-
NORTH CENTRAL ILLINOIS

CITY           SKY/WX    TMP DP  RH WIND       PRES   REMARKS
ROCKFORD       PTCLDY    77  67  71 W5        29.87R
6HR MIN TEMP:  74; 6HR MAX TEMP:  81;

$$

ILZ005-006-012>014-019>023-310100-
NORTHEAST ILLINOIS

CITY           SKY/WX    TMP DP  RH WIND       PRES   REMARKS
CHICAGO-OHARE  PTCLDY    80  63  55 W13       29.85R HX  81
6HR MIN TEMP:  80; 6HR MAX TEMP:  83;

CHICAGO-MIDWAY MOCLDY    82  66  58 W8        29.85R HX  84
6HR MIN TEMP:  82; 6HR MAX TEMP:  86;

AURORA         PTCLDY    77  68  73 W3        29.87R
6HR MIN TEMP:  77; 6HR MAX TEMP:  83;

WAUKEGAN       CLEAR     77  65  66 VRB6      29.84R
6HR MIN TEMP:  77; 6HR MAX TEMP:  81;

DUPAGE AIRPORT CLEAR     79  66  64 W10       29.86R HX  81
6HR MIN TEMP:  79; 6HR MAX TEMP:  83;

WHEELING       CLEAR     81  64  56 W9        29.86S HX  82
6HR MIN TEMP:  81; 6HR MAX TEMP:  84;

NORTHERLY ISL    N/A     81  64  56 W6          N/A  HX  82
$$

LMZ740>746-310100-
SOUTHERN LAKE MICHIGAN

STATION/POSITION SKY/WX   TEMP    WIND        PRES    VSBY  WAVE
                          AIR SEA DIR/SP/G                  HT/PER
                          (F)     (DEG/KT/KT) (MB)    (MI)  (FT/S)
SOUTHERN BUOY              73 69  230/ 10/ 10 1009.8R         2/ 5
WAUKEGAN HARBOR            79     260/  9/ 15   N/A
HARRISON CRIB              80     260/ 16/ 19   N/A
BURNHAM HARBOR             81     230/ 11/ 15   N/A
CALUMET HARBOR             82     230/  9/ 12 1009.9R
MICHIGAN CITY              78     190/ 11/ 14   N/A
MICHIGAN CITY 6N           74 72  210/ 10/ 14   N/A           2/ 3
ST. JOSEPH                 74 71  220/ 10/ 14   N/A           3/ 4
$$

ILZ025>027-034>036-040-047-049-050-058-095>099-310100-
WEST-CENTRAL ILLINOIS

CITY           SKY/WX    TMP DP  RH WIND       PRES   REMARKS
QUINCY         CLEAR     82  69  64 W3        29.88R HX  85
MACOMB*        CLEAR     80  70  72 W3        29.89S HX  83
$$

ILZ028>032-037-038-041>044-048-051>054-059>061-310100-
CENTRAL ILLINOIS

CITY           SKY/WX    TMP DP  RH WIND       PRES   REMARKS
DECATUR        PTCLDY    79  72  79 S10       29.91R HX  82
PEORIA         PTCLDY    83  69  62 NW6       29.87S HX  86
6HR MIN TEMP:  81; 6HR MAX TEMP:  86;

SPRINGFIELD    MOCLDY    82  72  71 SW6       29.89R HX  87
6HR MIN TEMP:  82; 6HR MAX TEMP:  86;

TAYLORVILLE    NOT AVBL
$$

ILZ033-039-045-046-055>057-062-063-310100-
EAST-CENTRAL ILLINOIS

CITY           SKY/WX    TMP DP  RH WIND       PRES   REMARKS
CHAMPAIGN      PTCLDY    77  72  84 S10       29.91S
MATTOON        MOCLDY    77  71  82 S12G20    29.92S
$$

ILZ079-100>102-310100-
SOUTHWEST ILLINOIS

CITY           SKY/WX    TMP DP  RH WIND       PRES   REMARKS
ALTON          PTCLDY    81  72  74 S8        29.91S HX  84
BELLEVILLE     CLOUDY    79  74  82 VRB1      29.91R HX  83
CAHOKIA*       CLOUDY    79  75  87 S3        29.91R HX  83
$$

ILZ064>066-069>071-074>076-080>082-084>086-088>090-092>094-310100-
SOUTH-CENTRAL ILLINOIS

CITY           SKY/WX    TMP DP  RH WIND       PRES   REMARKS
CARBONDALE     CLOUDY    76  70  82 S8        29.96R
6HR MIN TEMP:  76; 6HR MAX TEMP:  79; 6HR PCP: TRACE;

MT. VERNON     CLOUDY    75  70  83 S10       29.97R
$$

ILZ067-068-072-073-078-083-087-091-310100-
SOUTHEAST ILLINOIS

CITY           SKY/WX    TMP DP  RH WIND       PRES   REMARKS
LAWRENCEVILLE  CLOUDY    75  71  87 S12       29.96F
ROBINSON*      CLOUDY    76  73  91 S6        29.97R
$$

ABBREVIATIONS USED IN REMARKS
   TC - TEMPERATURE IN CELSIUS
  WCI - WIND CHILL INDEX
   HX - HEAT INDEX
  VSB - VISIBILITY
$$



USA.gov is the U.S. government's official web portal to all federal, state and local government web resources and services.